Вернуться в каталог

OPS 4682 DEB

АктивенPO
NORAD 38403·DEBRIS·🇺🇸 United States

Запущен Apr 3, 1965 с Vandenberg Space Force Base

Loading…

Ближайшие Пролёты (ближайшие 24 часа)

TLE

СвежийSource: Space-Track

Эпоха: Sep 11, 2026, 02:26 UTC

1 38403U 65027DG  26254.10152919  .00000194  00000-0  67116-3 0  9993
2 38403  90.2542  12.8024 0025498 333.0220  26.9572 12.94379464673040

Отслеживайте OPS 4682 DEB в реальном времени с AllMySat

Download on the App Store